Change the Weather History Date:

Wednesday, November 21, 2012

  Actual Average Record
Temperature  
Mean Temperature 42 °F -  
Max Temperature 50 °F 42 °F 53 °F (2002)
Min Temperature 33 °F 35 °F 17 °F (1998)
Degree Days  
Heating Degree Days 24    
Moisture  
Dew Point 38 °F    
Average Humidity 87    
Maximum Humidity 100    
Minimum Humidity 69    
Precipitation  
Precipitation 0.00 in - - ()
Sea Level Pressure  
Sea Level Pressure 29.93 in    
Wind  
Wind Speed 5 mph ()    
Max Wind Speed 17 mph    
Max Gust Speed -    
Visibility 6.5 miles    
Events Rain    
Averages and records for this station are not official NWS values.
T = Trace of Precipitation, MM = Missing Value Source: Averaged Metar Reports

Daily Weather History Graph

Daily Weather History Graph

Search for Another Location

Airport or City:

Trip Planner

Search our weather history database for the weather conditions in past years. The results will help you decide how hot, cold, wet, or windy it might be!

Date:

Astronomy

Nov. 21, 2012 Rise Set
Actual Time 8:05 AM CET 4:42 PM CET
Civil Twilight 7:27 AM CET 5:19 PM CET
Nautical Twilight 6:46 AM CET 6:00 PM CET
Astronomical Twilight 6:07 AM CET 6:40 PM CET
Moon 1:30 PM CET (11/21) 12:23 AM CET (11/21)
Length of Visible Light 9h 51m
Length of Day
8h 36m
First Quarter, 59% of the Moon is Illuminated
Nov 21
First Quarter
Nov 28
Full
Dec 6
Last Quarter
Dec 13
New
Dec 20
First Quarter

Hourly Weather History & Observations

Time (CET) Temp. Windchill Dew Point Humidity Pressure Visibility Wind Dir Wind Speed Gust Speed Precip Events Conditions
12:25 AM 37.4 °F 34.9 °F 35.6 °F 93% 30.01 in 6.2 mi Variable 3.5 mph - N/A   Scattered Clouds
12:55 AM 37.4 °F 34.9 °F 35.6 °F 93% 30.01 in 6.2 mi Variable 3.5 mph - N/A   Partly Cloudy
1:00 AM 37 °F - 36 °F 94% 30.01 in 9 mi 4.5 mph - -   Clear
1:25 AM 35.6 °F 32.8 °F 33.8 °F 93% 29.98 in 6.2 mi Variable 3.5 mph - N/A   Partly Cloudy
1:55 AM 35.6 °F 32.8 °F 33.8 °F 93% 29.98 in 6.2 mi Variable 3.5 mph - N/A   Partly Cloudy
2:25 AM 35.6 °F 32.8 °F 33.8 °F 93% 29.98 in 6.2 mi Variable 3.5 mph - N/A   Partly Cloudy
3:25 AM 35.6 °F 32.8 °F 33.8 °F 93% 29.95 in 6.2 mi Variable 3.5 mph - N/A   Scattered Clouds
3:55 AM 33.8 °F 30.8 °F 33.8 °F 100% 29.95 in 6.2 mi Variable 3.5 mph - N/A   Scattered Clouds
4:00 AM 35 °F - 34 °F 92% 29.98 in 9 mi 2.2 mph - -   Clear
4:25 AM 33.8 °F 30.8 °F 33.8 °F 100% 29.95 in 6.2 mi Variable 3.5 mph - N/A   Scattered Clouds
4:55 AM 35.6 °F 32.8 °F 33.8 °F 93% 29.95 in 6.2 mi Variable 3.5 mph - N/A   Scattered Clouds
5:25 AM 33.8 °F 30.8 °F 33.8 °F 100% 29.95 in 6.2 mi Variable 3.5 mph - N/A   Scattered Clouds
5:55 AM 33.8 °F 30.8 °F 33.8 °F 100% 29.92 in 6.2 mi Variable 3.5 mph - N/A   Mostly Cloudy
5:59 AM 33.8 °F 30.8 °F 33.8 °F 100% 29.92 in 6.2 mi Variable 3.5 mph - N/A   Mostly Cloudy
6:25 AM 33.8 °F 30.8 °F 33.8 °F 100% 29.92 in 6.2 mi Variable 3.5 mph - N/A   Mostly Cloudy
6:55 AM 33.8 °F 29.6 °F 33.8 °F 100% 29.92 in 6.2 mi East 4.6 mph - N/A   Mostly Cloudy
7:00 AM 35 °F - 33 °F 92% 29.94 in 9 mi East 4.5 mph - -   Clear
7:25 AM 33.8 °F 30.8 °F 33.8 °F 100% 29.92 in 6.2 mi Variable 3.5 mph - N/A   Mostly Cloudy
7:55 AM 33.8 °F 29.6 °F 33.8 °F 100% 29.92 in 6.2 mi ESE 4.6 mph - N/A   Mostly Cloudy
8:25 AM 33.8 °F 29.6 °F 33.8 °F 100% 29.92 in 6.2 mi SE 4.6 mph - N/A   Mostly Cloudy
8:55 AM 33.8 °F 29.6 °F 33.8 °F 100% 29.89 in 6.2 mi East 4.6 mph - N/A   Mostly Cloudy
9:25 AM 35.6 °F 31.7 °F 33.8 °F 93% 29.89 in 6.2 mi East 4.6 mph - N/A   Mostly Cloudy
9:55 AM 35.6 °F 32.8 °F 33.8 °F 93% 29.89 in 6.2 mi Variable 3.5 mph - N/A   Mostly Cloudy
10:00 AM 36 °F - 34 °F 90% 29.91 in 9 mi 4.5 mph - -   Clear
10:25 AM 39.2 °F 35.9 °F 35.6 °F 87% 29.89 in 6.2 mi ESE 4.6 mph - N/A   Mostly Cloudy
10:55 AM 41.0 °F 39.0 °F 37.4 °F 87% 29.89 in 6.2 mi Variable 3.5 mph - N/A   Mostly Cloudy
11:25 AM 42.8 °F 41.1 °F 37.4 °F 81% 29.89 in 6.2 mi Variable 3.5 mph - N/A   Mostly Cloudy
11:55 AM 42.8 °F 39.3 °F 37.4 °F 81% 29.86 in 6.2 mi SSE 5.8 mph - N/A   Mostly Cloudy
12:25 PM 44.6 °F 41.4 °F 37.4 °F 76% 29.86 in 6.2 mi South 5.8 mph - N/A   Mostly Cloudy
12:55 PM 44.6 °F 42.2 °F 39.2 °F 81% 29.86 in 6.2 mi SSE 4.6 mph - N/A   Mostly Cloudy
1:00 PM 45 °F - 39 °F 72% 29.88 in 16 mi 4.5 mph - -   Scattered Clouds
1:25 PM 46.4 °F 45.2 °F 39.2 °F 76% 29.86 in 6.2 mi Variable 3.5 mph - N/A   Mostly Cloudy
1:55 PM 46.4 °F 43.5 °F 39.2 °F 76% 29.86 in 6.2 mi South 5.8 mph - N/A   Mostly Cloudy
2:25 PM 46.4 °F 42.9 °F 39.2 °F 76% 29.86 in 6.2 mi South 6.9 mph - N/A   Mostly Cloudy
2:55 PM 46.4 °F 42.4 °F 39.2 °F 76% 29.86 in 6.2 mi South 8.1 mph - N/A Rain Light Rain
3:23 PM 46.4 °F 42.9 °F 41.0 °F 81% 29.86 in 6.2 mi SSW 6.9 mph - N/A Rain Light Rain
3:25 PM 46.4 °F 42.9 °F 41.0 °F 81% 29.86 in 6.2 mi SSW 6.9 mph - N/A Rain Light Rain
3:46 PM 44.6 °F 40.2 °F 42.8 °F 93% 29.89 in 4.3 mi SSW 8.1 mph - N/A Rain Light Rain
3:55 PM 44.6 °F 40.7 °F 42.8 °F 93% 29.89 in 3.1 mi SSW 6.9 mph - N/A Rain Light Rain
4:00 PM 45 °F - 42 °F 87% 29.89 in 3 mi SSW 6.7 mph - - Rain Light Rain
4:25 PM 44.6 °F 40.2 °F 42.8 °F 93% 29.89 in 3.7 mi SSW 8.1 mph - N/A Rain Light Rain
4:55 PM 44.6 °F 39.2 °F 42.8 °F 93% 29.89 in 5.0 mi SSW 10.4 mph - N/A   Mostly Cloudy
5:25 PM 46.4 °F 41.5 °F 42.8 °F 87% 29.89 in 6.2 mi SSW 10.4 mph - N/A   Mostly Cloudy
5:55 PM 46.4 °F 40.7 °F 42.8 °F 87% 29.89 in 6.2 mi SSW 12.7 mph - N/A   Mostly Cloudy
6:25 PM 46.4 °F 41.1 °F 42.8 °F 87% 29.92 in 6.2 mi SSW 11.5 mph - N/A   Mostly Cloudy
6:55 PM 48.2 °F - 42.8 °F 82% 29.92 in 6.2 mi SSW 11.5 mph - N/A   Mostly Cloudy
7:25 PM 48.2 °F - 42.8 °F 82% 29.92 in 6.2 mi SSW 13.8 mph - N/A   Mostly Cloudy
7:35 PM 48.2 °F - 42.8 °F 82% 29.92 in 6.2 mi SSW 13.8 mph - N/A   Mostly Cloudy
7:55 PM 48.2 °F - 42.8 °F 82% 29.95 in 6.2 mi SSW 15.0 mph - N/A   Mostly Cloudy
8:25 PM 48.2 °F - 42.8 °F 82% 29.95 in 6.2 mi SSW 15.0 mph - N/A   Mostly Cloudy
8:55 PM 50.0 °F - 42.8 °F 76% 29.95 in 6.2 mi SW 17.3 mph - N/A   Mostly Cloudy
9:25 PM 50.0 °F - 42.8 °F 76% 29.98 in 6.2 mi SW 15.0 mph - N/A   Mostly Cloudy
9:55 PM 50.0 °F - 42.8 °F 76% 30.01 in 6.2 mi SW 16.1 mph - N/A   Mostly Cloudy
10:00 PM 50 °F - 43 °F 69% 30.01 in 12 mi SW 15.7 mph - -   Mostly Cloudy
10:25 PM 50.0 °F - 41.0 °F 71% 30.01 in 6.2 mi WSW 16.1 mph - N/A   Mostly Cloudy
10:55 PM 50.0 °F - 41.0 °F 71% 30.04 in 6.2 mi WSW 17.3 mph - N/A   Mostly Cloudy
11:25 PM 48.2 °F - 42.8 °F 82% 30.04 in 6.2 mi WSW 12.7 mph - N/A   Mostly Cloudy
11:55 PM 48.2 °F - 41.0 °F 76% 30.06 in 6.2 mi SW 11.5 mph - N/A   Mostly Cloudy